User: anonymous   Login
Location: 相模原市立博物館
(35.5593°N, 139.3931°E)
Time: 14:02:26
(UTC+09:00)
Language:

NANOSAT C BR1 - Orbit

View from above orbital plane
View from above orbital plane
View from above satellite
View from above satellite

Ground track
Ground track

The orbit data is extracted from the following two-line orbital elements,

1 40024U 14033Q   22027.37117031  .00001276  00000-0  13522-3 0  9999
2 40024  97.9726 329.3492 0012677 146.2704 213.9322 14.90866719412955
Epoch (UTC): 27 January 2022 08:54:29
Eccentricity: 0.0012677
inclination: 97.9726°
perigee height: 586 km
apogee height: 604 km
right ascension of ascending node: 329.3492°
argument of perigee: 146.2704°
revolutions per day: 14.90866719
mean anomaly at epoch: 213.9322°
orbit number at epoch: 41295

The dashed part of the orbit path shows where the satellite is in the earth's shadow,  

DLR